Weather History for Deer Park, WA

Change the Weather History Date:

Tuesday, July 30, 2013

  Actual Average Record
Temperature  
Mean Temperature 68 °F 67 °F  
Max Temperature 87 °F 86 °F 100 °F (2003)
Min Temperature 49 °F 49 °F 35 °F (2001)
Degree Days  
Heating Degree Days 0 1  
Month to date heating degree days 23 63  
Since 1 June heating degree days 225 263  
Since 1 July heating degree days 23 63  
Cooling Degree Days 3 3  
Month to date cooling degree days 110 72  
Year to date cooling degree days 129 92  
Since 1 June cooling degree days 126 89  
Growing Degree Days 20 (Base 50)    
Moisture  
Dew Point 44 °F    
Average Humidity 47    
Maximum Humidity 77    
Minimum Humidity 17    
Precipitation  
Precipitation 0.00 in 0.02 in 0.00 in (2014)
Month to date precipitation 0.00 0.89  
Year to date precipitation 9.86 12.59  
Sea Level Pressure  
Sea Level Pressure 30.02 in    
Wind  
Wind Speed 3 mph (North)    
Max Wind Speed 10 mph    
Max Gust Speed 15 mph    
Visibility 10 miles    
Events      
T = Trace of Precipitation, MM = Missing Value Source: NWS Daily Summary

Daily Weather History Graph

Daily Weather History Graph

Search for Another Location

Airport:

Trip Planner

Search our weather history database for the weather conditions in past years. The results will help you decide how hot, cold, wet, or windy it might be!

Date:

Astronomy

Jul. 30, 2013 Rise Set
Actual Time 5:23 AM PDT 8:27 PM PDT
Civil Twilight 4:47 AM PDT 9:04 PM PDT
Nautical Twilight 3:59 AM PDT 9:51 PM PDT
Astronomical Twilight 3:00 AM PDT 10:49 PM PDT
Moon No Moon Rise 2:50 PM PDT (7/30)
Length of Visible Light 16h 16m
Length of Day
15h 03m
Last Quarter, 40% of the Moon is Illuminated
Jul 30
Last Quarter
Aug 6
New
Aug 14
First Quarter
Aug 20
Full
Aug 28
Last Quarter

Hourly Weather History & Observations

Time (PDT) Temp. Dew Point Humidity Pressure Visibility Wind Dir Wind Speed Gust Speed Precip Events Conditions
12:53 AM 57.0 °F 45.0 °F 64% 29.94 in 10.0 mi Calm Calm - N/A   Clear
1:53 AM 54.0 °F 45.0 °F 72% 29.95 in 10.0 mi NNW 3.5 mph - N/A   Clear
2:53 AM 54.0 °F 46.0 °F 75% 29.96 in 10.0 mi NW 5.8 mph - N/A   Clear
3:53 AM 53.1 °F 45.0 °F 74% 29.97 in 10.0 mi NNW 4.6 mph - N/A   Clear
4:53 AM 53.1 °F 45.0 °F 74% 29.99 in 10.0 mi Calm Calm - N/A   Clear
5:53 AM 55.0 °F 45.0 °F 69% 30.00 in 10.0 mi Calm Calm - N/A   Clear
6:53 AM 61.0 °F 48.0 °F 62% 30.01 in 10.0 mi North - - N/A   Clear
7:53 AM 66.9 °F 48.9 °F 52% 30.03 in 10.0 mi North 8.1 mph - N/A   Clear
8:53 AM 70.0 °F 48.9 °F 47% 30.05 in 10.0 mi NNE 8.1 mph - N/A   Clear
9:53 AM 73.9 °F 48.9 °F 41% 30.05 in 10.0 mi NE 6.9 mph - N/A   Clear
10:53 AM 78.1 °F 48.9 °F 36% 30.06 in 10.0 mi NNE 6.9 mph - N/A   Clear
11:53 AM 80.1 °F 46.0 °F 30% 30.06 in 10.0 mi SE 4.6 mph - N/A   Clear
12:53 PM 81.0 °F 39.9 °F 23% 30.05 in 10.0 mi Calm Calm - N/A   Clear
1:53 PM 82.9 °F 42.1 °F 24% 30.05 in 10.0 mi Calm Calm - N/A   Clear
2:53 PM 84.9 °F 37.9 °F 19% 30.04 in 10.0 mi SSW 6.9 mph - N/A   Clear
3:53 PM 86.0 °F 39.0 °F 19% 30.04 in 10.0 mi Calm Calm - N/A   Clear
4:53 PM 86.0 °F 37.9 °F 18% 30.03 in 10.0 mi ENE 3.5 mph - N/A   Partly Cloudy
5:53 PM 84.9 °F 36.0 °F 17% 30.02 in 10.0 mi Calm Calm - N/A   Clear
6:53 PM 84.0 °F 36.0 °F 18% 30.01 in 10.0 mi Calm Calm - N/A   Clear
7:53 PM 77.0 °F 45.0 °F 32% 30.02 in 10.0 mi Calm Calm - N/A   Clear
8:53 PM 66.0 °F 44.1 °F 45% 30.05 in 10.0 mi Calm Calm - N/A   Clear
9:53 PM 64.9 °F 43.0 °F 45% 30.06 in 10.0 mi Calm Calm - N/A   Clear
10:53 PM 64.0 °F 45.0 °F 50% 30.06 in 10.0 mi Calm Calm - N/A   Clear